Boulder Muni, Boulder, CO, CO

8:40 AM MDT on October 15, 2019 (GMT -0600)
Boulder Muni, Boulder, CO

Weather History for KBDU - August, 2019

Change the Weather History Date:

Friday, August 16, 2019

  Actual Average Record
Temperature  
Mean Temperature 73 °F -  
Max Temperature 90 °F - 91 °F (2014)
Min Temperature 55 °F - 55 °F (2013)
Degree Days  
Heating Degree Days 0    
Month to date heating degree days 0  
Cooling Degree Days 8    
Month to date cooling degree days 157  
Growing Degree Days 22 (Base 50)    
Moisture  
Dew Point 47 °F    
Average Humidity 49    
Maximum Humidity 84    
Minimum Humidity 14    
Precipitation  
Precipitation 0.00 in - 0.05 in (2017)
Snow  
Snow 0.00 in - - ()
Snow Depth 0.00 in    
Sea Level Pressure  
Sea Level Pressure 30.02 in    
Wind  
Wind Speed 4 mph (NW)    
Max Wind Speed 15 mph    
Max Gust Speed 21 mph    
Visibility 10 miles    
Events      
T = Trace of Precipitation, MM = Missing Value Source: NWS Daily Summary

Daily Weather History Graph

Daily Weather History Graph

Search for Another Location

Airport or City:

Astronomy

Aug. 16, 2019 Rise Set
Actual Time 6:13 AM MDT 7:56 PM MDT
Civil Twilight 5:44 AM MDT 8:25 PM MDT
Nautical Twilight 5:09 AM MDT 9:00 PM MDT
Astronomical Twilight 4:31 AM MDT 9:37 PM MDT
Moon 8:57 PM MDT (8/16) 7:07 AM MDT (8/16)
Length of Visible Light 14h 41m
Length of Day
13h 43m
Full, 99% of the Moon is Illuminated
Aug 16
Full
Aug 23
Last Quarter
Aug 30
New
Sep 5
First Quarter
Sep 13
Full

Hourly Weather History & Observations

Time (MDT) Temp. Heat Index Dew Point Humidity Pressure Visibility Wind Dir Wind Speed Gust Speed Precip Events Conditions
12:12 AM 68.0 °F - 50.0 °F 52% 30.06 in 10.0 mi Calm Calm - N/A   Clear
12:30 AM 66.2 °F - 50.0 °F 56% 30.06 in 10.0 mi Calm Calm - N/A   Clear
12:54 AM 66.2 °F - 46.4 °F 49% 30.05 in 10.0 mi Calm Calm - N/A   Clear
1:12 AM 64.4 °F - 50.0 °F 59% 30.06 in 10.0 mi WNW 3.5 mph - N/A   Clear
1:30 AM 64.4 °F - 50.0 °F 59% 30.06 in 10.0 mi Calm Calm - N/A   Clear
1:54 AM 64.4 °F - 48.2 °F 56% 30.05 in 10.0 mi SW 3.5 mph - N/A   Clear
2:12 AM 64.4 °F - 48.2 °F 56% 30.04 in 10.0 mi South 3.5 mph - N/A   Clear
2:30 AM 64.4 °F - 44.6 °F 49% 30.04 in 10.0 mi West 3.5 mph - N/A   Clear
2:54 AM 64.4 °F - 42.8 °F 45% 30.04 in 10.0 mi South 4.6 mph - N/A   Clear
3:12 AM 68.0 °F - 35.6 °F 30% 30.04 in 10.0 mi SSW 10.4 mph - N/A   Clear
3:30 AM 71.6 °F - 32.0 °F 23% 30.03 in 10.0 mi SSW 5.8 mph - N/A   Clear
3:48 AM 71.6 °F - 32.0 °F 23% 30.03 in 10.0 mi SW 6.9 mph - N/A   Clear
4:12 AM 62.6 °F - 39.2 °F 42% 30.03 in 10.0 mi NNE 3.5 mph - N/A   Clear
4:30 AM 59.0 °F - 46.4 °F 63% 30.04 in 10.0 mi North 4.6 mph - N/A   Clear
4:48 AM 59.0 °F - 48.2 °F 67% 30.04 in 10.0 mi NE 4.6 mph - N/A   Clear
5:12 AM 57.2 °F - 48.2 °F 72% 30.04 in 10.0 mi Calm Calm - N/A   Clear
5:30 AM 57.2 °F - 46.4 °F 67% 30.04 in 10.0 mi Calm Calm - N/A   Clear
5:48 AM 55.4 °F - 50.0 °F 82% 30.07 in 10.0 mi North 9.2 mph - N/A   Clear
6:08 AM 59.0 °F - 55.4 °F 88% 30.09 in 10.0 mi North 8.1 mph - N/A   Scattered Clouds
6:32 AM 59.0 °F - 55.4 °F 88% 30.11 in 10.0 mi NW 3.5 mph - N/A   Mostly Cloudy
6:50 AM 60.8 °F - 55.4 °F 82% 30.13 in 10.0 mi North 11.5 mph - N/A   Overcast
7:11 AM 60.8 °F - 55.4 °F 82% 30.13 in 10.0 mi NW 6.9 mph - N/A   Overcast
7:29 AM 60.8 °F - 55.4 °F 82% 30.13 in 10.0 mi NNW 4.6 mph - N/A   Overcast
8:12 AM 62.6 °F - 55.4 °F 77% 30.13 in 10.0 mi NW 8.1 mph - N/A   Overcast
8:30 AM 64.4 °F - 55.4 °F 73% 30.12 in 10.0 mi NNW 4.6 mph - N/A   Scattered Clouds
8:48 AM 64.4 °F - 55.4 °F 73% 30.11 in 10.0 mi NNE 5.8 mph - N/A   Clear
9:12 AM 66.2 °F - 55.4 °F 68% 30.10 in 10.0 mi NE 3.5 mph - N/A   Clear
9:48 AM 69.8 °F - 55.4 °F 60% 30.10 in 10.0 mi North 3.5 mph - N/A   Clear
10:12 AM 69.8 °F - 55.4 °F 60% 30.09 in 10.0 mi Calm Calm - N/A   Scattered Clouds
10:30 AM 69.8 °F - 55.4 °F 60% 30.09 in 10.0 mi ENE 6.9 mph - N/A   Clear
10:48 AM 71.6 °F - 55.4 °F 57% 30.08 in 10.0 mi ENE 6.9 mph - N/A   Clear
11:12 AM 71.6 °F - 55.4 °F 57% 30.08 in 10.0 mi East 4.6 mph - N/A   Clear
11:30 AM 71.6 °F - 55.4 °F 57% 30.07 in 10.0 mi ESE 4.6 mph - N/A   Clear
11:48 AM 73.4 °F - 55.4 °F 53% 30.06 in 10.0 mi ESE 4.6 mph - N/A   Clear
12:12 PM 75.2 °F - 55.4 °F 50% 30.05 in 10.0 mi Calm Calm - N/A   Clear
12:30 PM 77.0 °F - 53.6 °F 44% 30.03 in 10.0 mi SE 5.8 mph - N/A   Clear
12:48 PM 75.2 °F - 53.6 °F 47% 30.03 in 10.0 mi Calm Calm - N/A   Clear
1:12 PM 77.0 °F - 53.6 °F 44% 30.02 in 10.0 mi Calm Calm - N/A   Clear
1:30 PM 78.8 °F - 53.6 °F 42% 30.00 in 10.0 mi NE 5.8 mph - N/A   Clear
1:48 PM 77.0 °F - 53.6 °F 44% 30.00 in 10.0 mi ENE 5.8 mph - N/A   Clear
2:12 PM 78.8 °F - 53.6 °F 42% 30.00 in 10.0 mi East 3.5 mph - N/A   Clear
2:30 PM 75.2 °F - 55.4 °F 50% 30.01 in 10.0 mi SE 4.6 mph - N/A   Scattered Clouds
2:48 PM 80.6 °F 80.5 °F 55.4 °F 42% 29.97 in 10.0 mi East 8.1 mph - N/A   Scattered Clouds
3:12 PM 78.8 °F - 53.6 °F 42% 29.96 in 10.0 mi ENE 5.8 mph - N/A   Clear
3:30 PM 78.8 °F - 53.6 °F 42% 29.97 in 10.0 mi NE 5.8 mph - N/A   Clear
3:54 PM 78.8 °F - 53.6 °F 42% 29.95 in 10.0 mi Calm Calm - N/A   Clear
4:12 PM 78.8 °F - 53.6 °F 42% 29.94 in 10.0 mi Calm Calm - N/A   Clear
4:30 PM 78.8 °F - 51.8 °F 39% 29.93 in 10.0 mi Calm Calm - N/A   Clear
4:54 PM 82.4 °F - 50.0 °F 32% 29.93 in 10.0 mi WNW 8.1 mph - N/A   Clear
5:12 PM 86.0 °F - 32.0 °F 14% 29.92 in 10.0 mi WNW 5.8 mph - N/A   Clear
5:30 PM 89.6 °F - 33.8 °F 14% 29.93 in 10.0 mi NW 11.5 mph 20.7 mph N/A   Clear
5:54 PM 89.6 °F - 33.8 °F 14% 29.91 in 10.0 mi West 15.0 mph 19.6 mph N/A   Clear
6:14 PM 89.6 °F - 32.0 °F 13% 29.92 in 10.0 mi West 10.4 mph - N/A   Clear
6:32 PM 89.6 °F - 32.0 °F 13% 29.93 in 10.0 mi SW 10.4 mph 16.1 mph N/A   Clear
6:50 PM 80.6 °F - 48.2 °F 32% 29.96 in 10.0 mi NE 13.8 mph 20.7 mph N/A   Clear
7:12 PM 78.8 °F - 46.4 °F 32% 29.95 in 10.0 mi North 15.0 mph 24.2 mph N/A   Clear
7:30 PM 78.8 °F - 35.6 °F 21% 29.96 in 10.0 mi NNW 8.1 mph 19.6 mph N/A   Clear
7:48 PM 78.8 °F - 35.6 °F 21% 29.97 in 10.0 mi WNW 5.8 mph - N/A   Clear
8:12 PM 77.0 °F - 48.2 °F 36% 29.99 in 10.0 mi WSW 10.4 mph - N/A   Clear
8:30 PM 77.0 °F - 42.8 °F 29% 29.99 in 10.0 mi WSW 4.6 mph - N/A   Clear
8:48 PM 77.0 °F - 35.6 °F 22% 29.99 in 10.0 mi WSW 6.9 mph - N/A   Clear
9:12 PM 77.0 °F - 35.6 °F 22% 29.99 in 10.0 mi West 11.5 mph 17.3 mph N/A   Clear
9:30 PM 78.8 °F - 33.8 °F 20% 29.99 in 10.0 mi WSW 12.7 mph 19.6 mph N/A   Clear
9:48 PM 78.8 °F - 35.6 °F 21% 29.98 in 10.0 mi WSW 12.7 mph - N/A   Clear
10:12 PM 77.0 °F - 33.8 °F 21% 29.98 in 10.0 mi WSW 10.4 mph - N/A   Clear
10:30 PM 77.0 °F - 33.8 °F 21% 29.99 in 10.0 mi SW 6.9 mph - N/A   Clear
10:48 PM 77.0 °F - 33.8 °F 21% 29.99 in 10.0 mi SW 8.1 mph - N/A   Clear
11:12 PM 73.4 °F - 35.6 °F 25% 29.99 in 10.0 mi South 5.8 mph - N/A   Clear
11:31 PM 71.6 °F - 35.6 °F 27% 29.99 in 10.0 mi SSW 6.9 mph - N/A   Clear
11:48 PM 71.6 °F - 33.8 °F 25% 29.98 in 10.0 mi SSW 8.1 mph - N/A   Clear